Home   Weather   Wichita   Past weeks
Flag for USA

Past Weather in Wichita, Kansas, USA — Yesterday and Last 2 Weeks

Now
53 °F

Cloudy.


Feels Like: 48 °F
Forecast: 60 / 51 °F
Wind: 16 mph from Northeast

Location: Wichita Mid-Continent Airport

Current Time: May 20, 2019 at 9:40:30 am

Latest Report: May 20, 2019 at 8:53 am


Visibility: 10 mi

Pressure: 29.97 "Hg

Humidity: 64%

Dew Point: 41 °F

Location of WichitaLocation

Past Weather in Wichita — Graph

°F

Wichita Temperature Yesterday

Maximum temperature yesterday: 70 °F (at 4:53 pm)
Minimum temperature yesterday: 56 °F (at 1:53 am)
Average temperature yesterday: 62 °F

High & Low Weather Summary for the Past Weeks

 TemperatureHumidityPressure
High88 °F (May 16, 2:53 pm)93% (May 8, 3:53 am)30.22 "Hg (May 8, 3:53 am)
Low44 °F (May 9, 7:53 am)35% (May 12, 2:53 pm)29.48 "Hg (May 18, 7:53 pm)
Average64 °F70%29.84 "Hg
* Reported May 5 7:53 am — May 20 7:53 am, Wichita. Weather by CustomWeather, © 2019

Note: Actual official high and low records may vary slightly from our data, if they occured in-between our weather recording intervals... More about our weather records

Advertising

Wichita Weather History for the Previous 24 Hours

Scroll right to see more
 ConditionsComfort  
Time TempWeatherWind HumidityBarometerVisibility
7:53 am
Mon, May 20
53 °FMore clouds than sun.18 mph64%29.97 "Hg10 mi
6:53 am53 °FBroken clouds.14 mph72%29.98 "Hg10 mi
5:53 am54 °FPassing clouds.16 mph72%29.96 "Hg10 mi
4:53 am57 °FPassing clouds.15 mph67%29.96 "Hg10 mi
3:53 am57 °FPassing clouds.9 mph69%29.98 "Hg10 mi
2:53 am57 °FPassing clouds.10 mph69%29.98 "Hg10 mi
1:53 am57 °FPassing clouds.7 mph69%29.98 "Hg10 mi
12:53 am59 °FPartly cloudy.9 mph67%29.97 "Hg10 mi
11:53 pm
Sun, May 19
59 °FPartly cloudy.8 mph69%29.97 "Hg10 mi
10:53 pm61 °FPassing clouds.8 mph65%29.98 "Hg10 mi
9:53 pm62 °FPassing clouds.8 mph62%29.95 "Hg10 mi
8:53 pm65 °FPartly cloudy.7 mph52%29.93 "Hg10 mi
7:53 pm67 °FBroken clouds.No wind49%29.92 "Hg10 mi
6:53 pm68 °FBroken clouds.3 mph49%29.92 "Hg10 mi
5:53 pm69 °FBroken clouds.6 mph47%29.93 "Hg10 mi
4:53 pm70 °FBroken clouds.8 mph46%29.93 "Hg10 mi
3:53 pm68 °FPartly sunny.8 mph49%29.96 "Hg10 mi
2:53 pm68 °FPassing clouds.10 mph49%29.95 "Hg10 mi
1:53 pm67 °FPassing clouds.10 mph51%29.92 "Hg10 mi
12:53 pm65 °FSunny.13 mph51%29.93 "Hg10 mi
11:53 am64 °FPassing clouds.16 mph50%29.93 "Hg10 mi
10:53 am61 °FSunny.16 mph54%29.92 "Hg10 mi
9:53 am60 °FSunny.16 mph56%29.90 "Hg10 mi
Weather by CustomWeather, © 2019

See weather overview